Regional Weather Roundup
Issued by NWS

Home | Current Version | Previous Version | Graphics & Text | Print | Product List | Glossary Off
Versions: 1 2 3 4 5 6 7 8 9 10 11 12 13 14 15 16 17 18 19 20 21 22 23 24 25 26 27 28 29 30 31 32 33 34 35 36 37 38 39 40 41 42 43 44 45 46 47 48 49 50

000
ASUS43 KDMX 240803
RWRIA

WEATHER ROUNDUP FOR IOWA
NATIONAL WEATHER SERVICE DES MOINES IA
300 AM CDT SAT SEP 24 2016

NOTE: "FAIR" INDICATES FEW OR NO CLOUDS BELOW 12,000 FEET WITH NO
SIGNIFICANT WEATHER AND/OR OBSTRUCTIONS TO VISIBILITY.

* - THESE STATIONS ARE NOT NWS STATIONS...THUS NOT UNDER NWS
QUALITY CONTROL.  THEY ALSO DO NOT REPORT WEATHER SUCH
AS PRECIPITATION OR FOG.

IAZ001>003-012>014-020>022-031>034-043>046-240900-
   NORTHWEST IOWA

CITY           SKY/WX    TMP DP  RH WIND       PRES   REMARKS
CARROLL *      CLOUDY    70  68  94 SE7       30.02S FOG
CHEROKEE *     CLEAR     69  68  99 SE9       29.99S
DENISON *      CLEAR     68  64  88 SE9       29.97F
LE MARS *      CLEAR     68  63  83 SE10      29.96F
ORANGE CITY *  CLEAR     70  64  83 SE6       29.98S
SHELDON *      CLEAR     68  68 100 SE12      29.97S
SIOUX CITY     MOCLDY    68  64  87 SE8       29.94F
SPENCER        CLOUDY    69  68  96 SE12      30.01F FOG
STORM LAKE *   MOCLDY    68  68 100 SE12      30.02S FOG
$$

IAZ055>058-069>071-079>083-090>094-240900-
   SOUTHWEST IOWA

CITY           SKY/WX    TMP DP  RH WIND       PRES   REMARKS
ATLANTIC *     CLEAR     70  64  83 S5        30.00F
AUDUBON *      CLEAR     64  61  88 CALM      30.03S
CLARINDA *       N/A     68  64  88 MISG      30.01S
COUNCIL BLFS * MOCLDY    70  64  83 SE8       29.98S
CRESTON *        N/A     64  63  94 SE6       30.04F
HARLAN  *      CLEAR     70  64  83 SE6       30.03S
LAMONI         CLEAR     68  65  90 SE5       30.03F
RED OAK *      CLEAR     68  64  88 S5        30.00S
SHENANDOAH *   PTCLDY    70  64  83 SE5       29.99S
$$

IAZ047>049-059>061-072>074-084-240900-
   CENTRAL IOWA

CITY           SKY/WX    TMP DP  RH WIND       PRES   REMARKS
AMES           CLEAR     67  67 100 E6        30.05S FOG
ANKENY *         N/A    N/A N/A N/A MISG        N/A
BOONE *          N/A     68  68 100 SE10      30.04S FOG
CHARITON *       N/A     66  64  94 SE6       30.04S
DES MOINES     CLEAR     71  69  93 E8        30.03S FOG
GRINNELL*      CLEAR     66  65  95 E6        30.07S FOG
KNOXVILLE *    CLOUDY    68  66  94 SE5       30.04S FOG
MARSHALLTOWN   CLEAR     65  65 100 E10       30.06S FOG
NEWTON *       PTCLDY    68  66  94 E9        30.05S FOG
PELLA *        FOG       67  66  96 E5        30.06S VSB 1/2
PERRY *          N/A     68  68 100 E6        30.04R FOG
$$

IAZ004>006-015-016-023>025-035-036-240900-
   NORTH CENTRAL IOWA

CITY           SKY/WX    TMP DP  RH WIND       PRES   REMARKS
ALGONA *       CLOUDY    70  66  88 SE12G18   30.05S
CLARION *      CLOUDY    68  68 100 SE10      30.06S
ESTHERVILLE    CLOUDY    68  68 100 SE16      30.03S FOG
FORT DODGE *   CLOUDY    70  64  83 SE12      30.05S
FOREST CITY *  CLOUDY    64  64 100 SE13G18   30.07S
WEBSTER CITY * CLOUDY    68  66  94 SE8G14    30.04R FOG
IOWA FALLS *   CLOUDY    67  65  94 E8        30.07F FOG
$$

IAZ007>011-017>019-026>030-037>042-050>054-066-240900-
   NORTHEAST IOWA

CITY           SKY/WX    TMP DP  RH WIND       PRES   REMARKS
CEDAR RAPIDS   CLOUDY    66  66 100 E9        30.08S
CHARLES CITY * CLOUDY    64  64 100 SE9G16    30.10F
CLINTON *      CLOUDY    65  64  97 E8        30.12S
DECORAH *      CLOUDY    63  63 100 VRB5      30.12S
DUBUQUE        CLOUDY    63  62  97 E8        30.13S
MONTICELLO *   CLOUDY    64  63  94 E13       30.11S
OELWEIN *      PTCLDY    63  63 100 E10       30.11S
WATERLOO       CLOUDY    65  62  90 E9        30.08S
$$

IAZ064-065-067-068-078-240900-
   EAST CENTRAL IOWA

CITY           SKY/WX    TMP DP  RH WIND       PRES   REMARKS
DAVENPORT      CLOUDY    65  63  93 E8        30.11S
IOWA CITY      CLEAR     67  65  93 E6        30.10S
MUSCATINE *    PTCLDY    68  64  88 E7        30.09S
QUAD CITIES    CLOUDY    68  64  87 E12       30.10S
$$

IAZ062-063-075>077-085>089-095>099-240900-
   SOUTHEAST IOWA

CITY           SKY/WX    TMP DP  RH WIND       PRES   REMARKS
BURLINGTON     CLEAR     68  68 100 E7        30.07F FOG
FAIRFIELD *    CLEAR     68  66  94 E6        30.06F FOG
FORT MADISON * CLEAR     70  68  94 E3        30.08S FOG
KEOKUK *       CLEAR     72  68  88 SE8       30.06F FOG
OSKALOOSA *      N/A     67  66  96 E6        30.06F FOG
CENTERVILLE *    N/A     66  64  94 CALM      30.06F
OTTUMWA        CLEAR     68  66  93 E7        30.05F FOG
WASHINGTON *     N/A    N/A N/A N/A MISG        N/A
$$

ABBREVIATIONS USED IN REMARKS
   TC - TEMPERATURES IN CELSIUS
  WCI - WIND CHILL INDEX
   HX - HEAT INDEX
  VSB - VISIBILITY
$$





USA.gov is the U.S. government's official web portal to all federal, state and local government web resources and services.